Skip Page Navigation
NASA JPL Caltech
NASA Logo - Jet Propulsion Laboratory + View the NASA Portal
+ Center for Near-Earth Object Studies
JPL Home Earth Solar System Stars & Galaxies Technology
JPL Solar System Dynamics
BODIES ORBITS EPHEMERIDES TOOLS PHYSICAL DATA DISCOVERY FAQ SITE MAP
IMPORTANT: The SSD Announcement email list is now available. Major changes are coming in the near future, including possible hostname and/or URL changes. To be notified of such changes, subscribe to this email list.

Please visit this page for more details.


JPL Small-Body Database Browser
Search: [ help ]  
324228 (2006 BR100)
Classification: Main-belt Asteroid          SPK-ID: 2324228
Ephemeris | Orbit Diagram | Orbital Elements | Mission Design | Physical Parameters | Discovery Circumstances | Close-Approach Data ]

[ show orbit diagram ]
Orbital Elements at Epoch 2458600.5 (2019-Apr-27.0) TDB
Reference: JPL 12 (heliocentric ecliptic J2000)
 Element Value Uncertainty (1-sigma)   Units 
e .06473428432055876 6.8516e-08  
a 3.118451977035779 5.1327e-08 au
q 2.916581220114337 2.1e-07 au
i 16.25429936165932 7.2479e-06 deg
node 105.4300373397436 2.5801e-05 deg
peri 103.7974501044052 6.0696e-05 deg
M 82.25939195163174 5.4326e-05 deg
tp 2458140.889425937681
(2018-Jan-22.38942594)
0.00030388 TDB
period 2011.439699915663
5.51
4.966e-05
1.36e-07
d
yr
n .1789762825179867 4.4187e-09 deg/d
Q 3.320322733957222 5.4649e-08 au
  Orbit Determination Parameters
   # obs. used (total)      182  
   data-arc span      7144 days (19.56 yr)  
   first obs. used      2000-01-08  
   last obs. used      2019-07-31  
   planetary ephem.      DE431  
   SB-pert. ephem.      SB431-N16  
   condition code      0  
   norm. resid. RMS      .56161  
   source      ORB  
   producer      Otto Matic  
   solution date      2019-Sep-24 06:13:01  

Additional Information
 Earth MOID = 1.95876 au 
 Jupiter MOID = 1.89828 au 
 T_jup = 3.152 
[ show covariance matrix ]

Ephemeris | Orbit Diagram | Orbital Elements | Mission Design | Physical Parameters | Discovery Circumstances | Close-Approach Data ]

Physical Parameter Table
Parameter Symbol Value Units Sigma Reference Notes
absolute magnitude H 15.4   n/a MPO450271  
diameter diameter 5.035 km 1.278 urn:nasa:pds:neowise_diameters_albedos::2.0[mainbelt] (http://adsabs.harvard.edu/abs/2011ApJ...741...68M)  
geometric albedo albedo 0.058   0.076 urn:nasa:pds:neowise_diameters_albedos::2.0[mainbelt] (http://adsabs.harvard.edu/abs/2011ApJ...741...68M)  

324228 (2006 BR100)          Discovered 2006-Jan-29 by Observatoire Naef at Marly
Reference: 20120406/Numbers.arcLast Updated: 2012-04-09

[ show close-approach data ]
Alternate Designations
 2006 BR100 = 2000 AN254 
Ephemeris | Orbit Diagram | Orbital Elements | Mission Design | Physical Parameters | Discovery Circumstances | Close-Approach Data ]
ABOUT SSD CREDITS/AWARDS PRIVACY/COPYRIGHT GLOSSARY LINKS
FirstGov
(server date/time)  
NASA Home Page
Site Manager:   Ryan S. Park
Webmaster  Alan B. Chamberlin